York, NE

2:44 AM CDT on September 19, 2019 (GMT -0500)
York Municipal

Weather History for KJYR - August, 2019

Change the Weather History Date:

Sunday, August 25, 2019

  Actual Average Record
Temperature  
Mean Temperature 68 °F -  
Max Temperature 73 °F 86 °F 103 °F (1955)
Min Temperature 64 °F 61 °F 50 °F (1964)
Cooling Degree Days 4    
Growing Degree Days 18 (Base 50)    
Moisture  
Dew Point 65 °F    
Average Humidity 93    
Maximum Humidity 100    
Minimum Humidity 78    
Precipitation  
Precipitation 0.00 in - - ()
Sea Level Pressure  
Sea Level Pressure 29.89 in    
Wind  
Wind Speed 9 mph (SE)    
Max Wind Speed 15 mph    
Max Gust Speed 21 mph    
Visibility 9 miles    
Events      
Averages and records for this station are not official NWS values.
T = Trace of Precipitation, MM = Missing Value Source: NWS Daily Summary

Daily Weather History Graph

Daily Weather History Graph

Search for Another Location

Airport or City:

Astronomy

Aug. 25, 2019 Rise Set
Actual Time 6:50 AM CDT 8:14 PM CDT
Civil Twilight 6:21 AM CDT 8:42 PM CDT
Nautical Twilight 5:47 AM CDT 9:17 PM CDT
Astronomical Twilight 5:10 AM CDT 9:53 PM CDT
Moon 1:24 AM CDT (8/25) 4:38 PM CDT (8/25)
Length of Visible Light 14h 21m
Length of Day
13h 24m
Waning Crescent, 29% of the Moon is Illuminated
Aug 25
Waning Crescent
Aug 30
New
Sep 5
First Quarter
Sep 13
Full
Sep 21
Last Quarter

Hourly Weather History & Observations

Time (CDT) Temp. Dew Point Humidity Pressure Visibility Wind Dir Wind Speed Gust Speed Precip Events Conditions
12:15 AM 66.2 °F 64.4 °F 94% 29.98 in 10.0 mi SE 10.4 mph - N/A   Overcast
12:35 AM 66.2 °F 64.4 °F 94% 29.98 in 10.0 mi SE 11.5 mph - N/A   Overcast
12:55 AM 66.2 °F 64.4 °F 94% 29.97 in 10.0 mi SE 12.7 mph 20.7 mph N/A   Overcast
1:15 AM 66.2 °F 62.6 °F 88% 29.96 in 10.0 mi SE 13.8 mph - N/A   Overcast
1:35 AM 66.2 °F 62.6 °F 88% 29.96 in 10.0 mi SE 11.5 mph - N/A   Overcast
1:55 AM 64.4 °F 62.6 °F 94% 29.95 in 10.0 mi SE 8.1 mph 16.1 mph N/A   Overcast
2:15 AM 64.4 °F 62.6 °F 94% 29.95 in 10.0 mi SE 6.9 mph 16.1 mph N/A   Overcast
2:55 AM 64.4 °F 62.6 °F 94% 29.95 in 10.0 mi SE 3.5 mph - N/A   Overcast
3:15 AM 64.4 °F 62.6 °F 94% 29.95 in 10.0 mi SSE 5.8 mph - N/A   Overcast
3:35 AM 64.4 °F 62.6 °F 94% 29.96 in 10.0 mi SSE 8.1 mph - N/A   Overcast
3:55 AM 64.4 °F 62.6 °F 94% 29.94 in 10.0 mi SE 6.9 mph - N/A   Overcast
4:15 AM 64.4 °F 62.6 °F 94% 29.94 in 10.0 mi SE 6.9 mph - N/A   Overcast
4:35 AM 64.4 °F 62.6 °F 94% 29.94 in 10.0 mi Calm Calm - N/A   Overcast
4:55 AM 64.4 °F 62.6 °F 94% 29.93 in 10.0 mi ESE 8.1 mph - N/A   Overcast
5:35 AM 64.4 °F 62.6 °F 94% 29.92 in 10.0 mi ESE 6.9 mph - N/A   Overcast
5:55 AM 64.4 °F 62.6 °F 94% 29.90 in 10.0 mi ESE 6.9 mph - N/A   Overcast
6:15 AM 64.4 °F 62.6 °F 94% 29.91 in 10.0 mi East 8.1 mph - N/A   Overcast
6:35 AM 64.4 °F 62.6 °F 94% 29.92 in 10.0 mi ESE 8.1 mph - N/A   Overcast
6:55 AM 64.4 °F 62.6 °F 94% 29.92 in 10.0 mi SE 5.8 mph - N/A   Overcast
7:15 AM 64.4 °F 62.6 °F 94% 29.91 in 10.0 mi ESE 10.4 mph - N/A   Overcast
7:35 AM 64.4 °F 62.6 °F 94% 29.90 in 10.0 mi SE 10.4 mph - N/A   Overcast
7:55 AM 64.4 °F 62.6 °F 94% 29.91 in 10.0 mi SE 6.9 mph - N/A   Overcast
8:15 AM 64.4 °F 62.6 °F 94% 29.91 in 10.0 mi SSE 9.2 mph - N/A   Overcast
8:35 AM 64.4 °F 64.4 °F 100% 29.91 in 10.0 mi SE 10.4 mph - N/A   Overcast
8:55 AM 64.4 °F 64.4 °F 100% 29.91 in 3.0 mi SE 8.1 mph - N/A   Overcast
9:15 AM 64.4 °F 64.4 °F 100% 29.90 in 4.0 mi ESE 6.9 mph - N/A   Overcast
9:35 AM 64.4 °F 64.4 °F 100% 29.90 in 2.5 mi ESE 9.2 mph - N/A   Overcast
9:55 AM 64.4 °F 64.4 °F 100% 29.91 in 2.5 mi ESE 9.2 mph - N/A   Overcast
10:15 AM 64.4 °F 64.4 °F 100% 29.91 in 2.5 mi SE 9.2 mph - N/A   Overcast
10:35 AM 64.4 °F 64.4 °F 100% 29.91 in 2.5 mi SE 10.4 mph - N/A   Overcast
10:55 AM 64.4 °F 64.4 °F 100% 29.92 in 5.0 mi SE 8.1 mph - N/A   Overcast
11:15 AM 64.4 °F 64.4 °F 100% 29.91 in 7.0 mi SE 10.4 mph - N/A   Overcast
11:35 AM 66.2 °F 64.4 °F 94% 29.91 in 10.0 mi SSE 8.1 mph - N/A   Overcast
11:55 AM 66.2 °F 64.4 °F 94% 29.92 in 10.0 mi SSE 8.1 mph - N/A   Overcast
12:15 PM 66.2 °F 64.4 °F 94% 29.92 in 10.0 mi South 5.8 mph - N/A   Overcast
12:35 PM 66.2 °F 64.4 °F 94% 29.91 in 10.0 mi SSE 6.9 mph - N/A   Overcast
12:55 PM 66.2 °F 64.4 °F 94% 29.91 in 10.0 mi South 9.2 mph - N/A   Overcast
1:15 PM 68.0 °F 64.4 °F 88% 29.91 in 10.0 mi SSE 5.8 mph - N/A   Overcast
1:35 PM 68.0 °F 64.4 °F 88% 29.89 in 10.0 mi SE 9.2 mph - N/A   Overcast
1:55 PM 68.0 °F 64.4 °F 88% 29.89 in 10.0 mi SSE 8.1 mph - N/A   Overcast
2:15 PM 68.0 °F 64.4 °F 88% 29.88 in 10.0 mi SSE 8.1 mph - N/A   Overcast
2:35 PM 68.0 °F 66.2 °F 94% 29.88 in 10.0 mi SSE 5.8 mph - N/A   Overcast
2:55 PM 69.8 °F 66.2 °F 88% 29.87 in 10.0 mi Calm Calm - N/A   Overcast
3:35 PM 69.8 °F 66.2 °F 88% 29.86 in 10.0 mi SSE 4.6 mph - N/A   Overcast
3:55 PM 69.8 °F 66.2 °F 88% 29.85 in 10.0 mi SSE 5.8 mph - N/A   Overcast
4:15 PM 69.8 °F 66.2 °F 88% 29.85 in 10.0 mi SSE 6.9 mph - N/A   Overcast
4:35 PM 71.6 °F 66.2 °F 83% 29.84 in 10.0 mi SSE 4.6 mph - N/A   Overcast
4:55 PM 71.6 °F 66.2 °F 83% 29.83 in 10.0 mi SSE 5.8 mph - N/A   Overcast
5:15 PM 73.4 °F 66.2 °F 78% 29.82 in 10.0 mi SSE 5.8 mph - N/A   Overcast
5:35 PM 71.6 °F 66.2 °F 83% 29.82 in 10.0 mi SSE 4.6 mph - N/A   Overcast
5:55 PM 71.6 °F 66.2 °F 83% 29.82 in 10.0 mi SSE 5.8 mph - N/A   Overcast
6:15 PM 71.6 °F 66.2 °F 83% 29.82 in 10.0 mi SE 6.9 mph - N/A   Overcast
6:35 PM 71.6 °F 66.2 °F 83% 29.83 in 10.0 mi SSE 6.9 mph - N/A   Overcast
6:55 PM 71.6 °F 66.2 °F 83% 29.83 in 10.0 mi SE 5.8 mph - N/A   Overcast
7:15 PM 71.6 °F 68.0 °F 88% 29.83 in 10.0 mi ESE 8.1 mph - N/A   Overcast
7:35 PM 71.6 °F 68.0 °F 88% 29.83 in 10.0 mi ESE 8.1 mph - N/A   Overcast
7:55 PM 69.8 °F 68.0 °F 94% 29.83 in 10.0 mi ESE 6.9 mph - N/A   Overcast
8:15 PM 69.8 °F 66.2 °F 88% 29.83 in 10.0 mi SE 8.1 mph - N/A   Overcast
8:35 PM 68.0 °F 66.2 °F 94% 29.83 in 10.0 mi ESE 6.9 mph - N/A   Overcast
8:55 PM 68.0 °F 66.2 °F 94% 29.83 in 10.0 mi ESE 6.9 mph - N/A   Overcast
9:15 PM 68.0 °F 66.2 °F 94% 29.83 in 10.0 mi ESE 10.4 mph - N/A   Overcast
9:35 PM 68.0 °F 66.2 °F 94% 29.84 in 10.0 mi SE 12.7 mph 19.6 mph N/A   Overcast
9:55 PM 68.0 °F 66.2 °F 94% 29.84 in 10.0 mi SE 15.0 mph 19.6 mph N/A   Overcast
10:15 PM 66.2 °F 66.2 °F 100% 29.83 in 10.0 mi SE 13.8 mph 19.6 mph N/A   Overcast
10:35 PM 66.2 °F 66.2 °F 100% 29.83 in 10.0 mi SE 12.7 mph - N/A   Overcast
10:55 PM 66.2 °F 66.2 °F 100% 29.83 in 10.0 mi SE 10.4 mph 17.3 mph N/A   Overcast
11:15 PM 66.2 °F 66.2 °F 100% 29.82 in 10.0 mi SE 9.2 mph 19.6 mph N/A   Overcast
11:35 PM 66.2 °F 64.4 °F 94% 29.84 in 10.0 mi SSE 13.8 mph - N/A   Overcast
11:55 PM 66.2 °F 64.4 °F 94% 29.83 in 10.0 mi SE 10.4 mph - N/A   Overcast